This is the latest recevied weather packets stored in our database for station/object N7IGG. If no packets are shown the sender has not sent any weather packets the latest 10 day(s).
| Time | Temp. | Humidity | Pressure | Rain* | Wind** | Luminosity | Snow |
|---|---|---|---|---|---|---|---|
| 1777413069 | 12.78° C | 75% | 1022.8 hPa | 0 mm | - | 239 W/m² | - |
| 1777412764 | 12.78° C | 74% | 1022.5 hPa | 0 mm | - | 280 W/m² | - |
| 1777412463 | 12.78° C | 72% | 1022.8 hPa | 0 mm | - | 273 W/m² | - |
| 1777412160 | 12.78° C | 72% | 1022.6 hPa | 0 mm | - | 254 W/m² | - |
| 1777411856 | 12.78° C | 73% | 1022.7 hPa | 0 mm | - | 254 W/m² | - |
| 1777411555 | 12.78° C | 73% | 1022.8 hPa | 0 mm | - | 237 W/m² | - |
| 1777411250 | 12.78° C | 73% | 1022.8 hPa | 0 mm | - | 218 W/m² | - |
| 1777410945 | 12.78° C | 73% | 1022.9 hPa | 0 mm | - | 206 W/m² | - |
| 1777410644 | 12.22° C | 73% | 1022.8 hPa | 0 mm | - | 217 W/m² | - |
| 1777410339 | 12.78° C | 74% | 1023 hPa | 0 mm | - | 217 W/m² | - |
| 1777410034 | 12.78° C | 75% | 1023 hPa | 0 mm | - | 202 W/m² | - |
| 1777409734 | 12.22° C | 75% | 1023 hPa | 0 mm | - | 191 W/m² | - |
| 1777409430 | 12.22° C | 76% | 1022.9 hPa | 0 mm | - | 185 W/m² | - |
| 1777409126 | 12.22° C | 75% | 1022.9 hPa | 0 mm | - | 203 W/m² | - |
| 1777408822 | 12.22° C | 75% | 1023.2 hPa | 0 mm | - | 176 W/m² | - |
| 1777408519 | 12.22° C | 75% | 1023 hPa | 0 mm | - | 150 W/m² | - |
| 1777408218 | 12.78° C | 75% | 1022.9 hPa | 0 mm | - | 154 W/m² | - |
| 1777407914 | 12.22° C | 75% | 1022.7 hPa | 0 mm | - | 150 W/m² | - |
| 1777407612 | 12.22° C | 75% | 1023.1 hPa | 0 mm | - | 148 W/m² | - |
| 1777407312 | 12.22° C | 75% | 1023 hPa | 0 mm | - | 169 W/m² | - |
| 1777407006 | 12.22° C | 75% | 1022.9 hPa | 0 mm | - | 161 W/m² | - |
| 1777406701 | 12.22° C | 75% | 1025.8 hPa | 0 mm | - | 146 W/m² | - |
| 1777406397 | 12.22° C | 77% | 1025.6 hPa | 0 mm | - | 169 W/m² | - |
| 1777406097 | 12.22° C | 77% | 1025.6 hPa | 0 mm | - | 194 W/m² | - |
| 1777405793 | 12.22° C | 77% | 1025.7 hPa | 0 mm | - | 180 W/m² | - |
* Rain latest hour (hover to see other rain measurements)
** Current wind speed in m/s (hover to see current wind gust speed)